GW3092 Weather Reports


time (UTC)temp
F
wind
direction
speed
knots
gust
knots
rain 1hr
in
rain 24hr
in
rain mn
in
humidity
%
barometer
mb
20260503004538 57 110 2.6 7.0 0.00 0.00 0.00 50 1020.5
20260503003037 56 330 3.5 7.0 0.00 0.00 0.00 51 1020.7
20260503001544 56 98 5.2 7.0 0.00 0.00 0.00 50 1020.7
20260503000059 58 125 3.5 6.1 0.00 0.00 0.00 49 1020.9
20260502234548 58 106 4.3 7.0 0.00 0.00 0.00 48 1021.0
20260502233038 59 131 1.7 4.3 0.00 0.00 0.00 47 1021.1
20260502231539 59 81 1.7 7.0 0.00 0.00 0.00 46 1021.4
20260502230038 60 135 4.3 6.1 0.00 0.00 0.00 45 1021.4
20260502224537 61 144 3.5 5.2 0.00 0.00 0.00 45 1021.5
20260502223044 60 123 1.7 2.6 0.00 0.00 0.00 45 1021.7
20260502221541 61 121 0.9 5.2 0.00 0.00 0.00 45 1021.8
20260502220048 61 152 2.6 4.3 0.00 0.00 0.00 44 1021.8
20260502214539 61 105 1.7 3.5 0.00 0.00 0.00 45 1021.7
20260502213041 61 105 1.7 2.6 0.00 0.00 0.00 45 1021.7
20260502211544 61 105 1.7 3.5 0.00 0.00 0.00 46 1021.9
20260502210046 61 107 1.7 3.5 0.00 0.00 0.00 46 1021.9
20260502204542 61 97 2.6 3.5 0.00 0.00 0.00 47 1021.9
20260502203048 60 112 0.9 5.2 0.00 0.00 0.00 48 1022.0
20260502201545 60 129 1.7 5.2 0.00 0.00 0.00 48 1022.1
20260502200104 60 132 3.5 6.1 0.00 0.00 0.00 49 1022.1
20260502194543 60 136 4.3 6.1 0.00 0.00 0.00 48 1022.0
20260502193043 61 123 3.5 6.1 0.00 0.00 0.00 48 1021.9
20260502191544 60 129 1.7 5.2 0.00 0.00 0.00 49 1021.9
20260502190050 61 148 2.6 5.2 0.00 0.00 0.00 50 1021.8
20260502184545 61 147 1.7 4.3 0.00 0.00 0.00 48 1021.7
20260502183048 61 177 0.9 4.3 0.00 0.00 0.00 49 1021.6
20260502181543 62 144 2.6 5.2 0.00 0.00 0.00 50 1021.6
20260502163048 67 235 5.2 10.4 0.00 0.00 0.00 44 1021.7
20260502161539 68 220 4.3 9.6 0.00 0.00 0.00 43 1021.8
20260502151600 69 240 7.0 11.3 0.00 0.00 0.00 42 1022.2
20260502123042 69 247 7.0 15.6 0.00 0.00 0.00 41 1023.8
20260502121543 70 245 7.0 12.2 0.00 0.00 0.00 42 1024.0
20260502114545 69 229 7.0 13.9 0.00 0.00 0.00 41 1024.2
20260502113050 69 254 7.8 14.8 0.00 0.00 0.00 42 1024.3
20260502111548 69 233 7.8 13.9 0.00 0.00 0.00 42 1024.5
20260502110049 69 220 7.0 14.8 0.00 0.00 0.00 44 1024.6
20260502104544 68 291 7.0 13.0 0.00 0.00 0.00 45 1024.8
20260502103039 67 247 7.8 13.9 0.00 0.00 0.00 44 1024.9
20260502101538 67 294 6.1 12.2 0.00 0.00 0.00 43 1025.1
20260502090106 65 251 6.1 10.4 0.00 0.00 0.00 44 1025.7
20260502070100 63 160 0.9 4.3 0.00 0.00 0.00 45 1026.1
20260502064558 62 171 1.7 4.3 0.00 0.00 0.00 45 1026.2
20260502063050 63 143 1.7 4.3 0.00 0.00 0.00 46 1026.3
20260502061539 62 79 0.0 2.6 0.00 0.00 0.00 46 1026.3
20260502060038 60 0 0.0 2.6 0.00 0.00 0.00 46 1026.3
20260502054548 57 79 1.7 6.1 0.00 0.00 0.00 52 1026.3
20260502053044 57 40 2.6 5.2 0.00 0.00 0.00 53 1026.3
20260502051545 55 330 1.7 4.3 0.00 0.00 0.00 53 1026.3
20260502050043 55 330 3.5 6.1 0.00 0.00 0.00 52 1026.4
20260502044539 53 116 2.6 7.0 0.00 0.00 0.00 54 1026.2
20260502043039 53 330 5.2 7.0 0.00 0.00 0.00 53 1026.2
20260502041548 52 83 6.1 8.7 0.00 0.00 0.00 55 1026.2
20260502040045 53 330 3.5 6.1 0.00 0.00 0.00 53 1026.2
20260502034544 54 330 3.5 7.0 0.00 0.00 0.00 52 1026.2
20260502033044 54 104 2.6 7.0 0.00 0.00 0.00 51 1026.2
20260502031541 55 96 5.2 7.8 0.00 0.00 0.00 49 1026.1
20260502030040 56 330 2.6 3.5 0.00 0.00 0.00 47 1026.3
20260502024546 57 330 1.7 3.5 0.00 0.00 0.00 45 1026.2
20260502023102 57 330 1.7 2.6 0.00 0.00 0.00 45 1026.4
20260502021540 58 330 1.7 3.5 0.00 0.00 0.00 45 1026.3
20260502020038 58 330 0.9 2.6 0.00 0.00 0.00 44 1026.2
20260502014545 57 330 1.7 3.5 0.00 0.00 0.00 44 1026.4
20260502013044 58 330 1.7 2.6 0.00 0.00 0.00 44 1026.5
20260502011544 58 330 1.7 2.6 0.00 0.00 0.00 44 1026.5
20260502010041 58 330 1.7 2.6 0.00 0.00 0.00 44 1026.6